Weather Roundup
Issued by NWS

Home | Current Version | Previous Version | Text Only | Print | Product List | Glossary On
Versions: 1 2 3 4 5 6 7 8 9 10 11 12 13 14 15 16 17 18 19 20 21 22 23 24 25 26 27 28 29 30 31 32 33 34 35 36 37 38 39 40 41 42 43 44 45 46 47 48 49 50
338
NZUS93 KARX 250159
HRRWXR

CURRENT HOURLY OBSERVATIONS ACROSS
MUCH OF THE UPPER MISSISSIPPI VALLEY
NATIONAL WEATHER SERVICE LA CROSSE WI
900 PM CDT THU MAY 24 2018


...SOUTHEAST MINNESOTA...


CITY           SKY/WX    TMP DP  RH WIND       PRES   REMARKS
ROCHESTER      FAIR      79  60  52 S14       29.93S
ROCHESTER/MAYO FAIR      82  57  42 S9G16     29.92S
WINONA         FAIR      79  61  53 S6        29.91S
AUSTIN         FAIR      79  61  53 S8        29.92S
ALBERT LEA     MOCLDY    81  55  41 S9        29.91R
DODGE CENTER   FAIR      79  57  47 S13       29.92R
PRESTON        FAIR      78  59  52 S8        29.95R
OWATONNA       FAIR      82  61  47 S10       29.89S
FARIBAULT      MOCLDY    66  66 100 CALM      29.91R
$$

...ELSEWHERE IN MINNESOTA...


CITY           SKY/WX    TMP DP  RH WIND       PRES   REMARKS
MINNEAPOLIS    TSTM      71  66  84 SE12      29.90F
INTNL FALLS    FAIR      72  65  78 S3        29.77F
DULUTH         FAIR      65  62  90 SE6       29.84F
RED WING       TSTM      72  63  73 W21G35    29.96R
REDWOOD FALLS  CLOUDY    78  60  53 SW9       29.82F
MANKATO        FAIR      76  62  62 E10       29.87R
WORTHINGTON    TSTM      71  59  65 SW16G28   29.91R
FAIRMONT       CLOUDY    76  63  64 S23G35    29.90R
$$

...SOUTHWEST WISCONSIN...


CITY           SKY/WX    TMP DP  RH WIND       PRES   REMARKS
LA CROSSE      MOCLDY    80  66  62 SE5       29.91F
PRAIRIE DU CHI FAIR      81  61  49 SE3       29.95S
BOSCOBEL       FAIR      81  64  56 S6        29.95S
LONE ROCK      NOT AVBL
PLATTEVILLE    FAIR      78  65  63 S8        29.99F
FORT MC COY    FAIR      77  65  65 SE3       29.95F
CAMP DOUGLAS   FAIR      71  65  80 CALM      29.96F
MAUSTON-NEW LI FAIR      74  65  74 CALM      29.96S
VIROQUA        FAIR      77  65  66 S7        29.97S
WIS DELLS      FAIR      74  62  64 S5        29.98F
$$

...ELSEWHERE IN WISCONSIN...


CITY           SKY/WX    TMP DP  RH WIND       PRES   REMARKS
MILWAUKEE      FAIR      72  52  49 S8        30.02F
MADISON        FAIR      78  62  57 S5        29.98F
GREEN BAY      FAIR      74  59  59 S9        29.97F
EAU CLAIRE     NOT AVBL
BLACK RVR FLS  FAIR      78  62  56 S3        29.93F
MEDFORD        FAIR      77  61  58 S8        29.95F
WAUSAU         FAIR      78  60  53 S9        29.94F
WIS RAPIDS     FAIR      76  61  59 S6        29.97F
MARSHFIELD     FAIR      72  63  73 S8        29.96S
RICE LAKE      FAIR      80  58  45 S7        29.90F
$$

...NORTHEAST IOWA...


CITY           SKY/WX    TMP DP  RH WIND       PRES   REMARKS
WATERLOO       FAIR      80  63  55 S9        29.94S
DUBUQUE        FAIR      74  61  63 S8        29.99S
DECORAH        FAIR      79  64  61 S6        29.94S
MASON CITY     CLEAR     79  61  53 S10       29.94R
CHARLES CITY   FAIR      77  61  57 S10       29.95S
OELWEIN        FAIR      79  64  61 S12       29.96F
$$

...ELSEWHERE IN IOWA...


CITY           SKY/WX    TMP DP  RH WIND       PRES   REMARKS
DES MOINES     PTCLDY    79  64  60 S9        29.95S
IOWA CITY      FAIR      78  62  57 S6        29.99S
FORT DODGE     CLOUDY    81  63  54 S12       29.92S
MARSHALLTOWN   CLEAR     78  64  61 S9        29.94F
CEDAR RAPIDS   FAIR      79  63  57 S6        29.97S
$$

...NORTHERN ILLINOIS...


CITY           SKY/WX    TMP DP  RH WIND       PRES   REMARKS
CHICAGO-OHARE  FAIR      75  52  44 SE8       30.02S
CHICAGO-MIDWAY FAIR      76  53  44 E9        30.03S
MOLINE         FAIR      77  62  59 S6        29.99R
ROCKFORD       FAIR      74  61  63 SE3       30.02S
PEORIA         FAIR      77  61  57 CALM      30.02R HAZE
$$

NOTE: "FAIR" INDICATES FEW OR NO CLOUDS BELOW 12,000 FEET WITH NO
SIGNIFICANT WEATHER AND/OR OBSTRUCTIONS TO VISIBILITY. WIND
SPEEDS ARE IN MILES-PER-HOUR.




USA.gov is the U.S. government's official web portal to all federal, state and local government web resources and services.